| time (UTC) | temp C | wind direction | speed KPH | gust KPH | rain 1hr cm | rain 24hr cm | rain mn cm | humidity % | barometer mb |
| 20260831211523 | 37 | 178 | 1.6 | 8.0 | 0.00 | 0.00 | 0.00 | 37 | 1015.0 |
| 20260831210027 | 37 | 42 | 1.6 | 4.8 | 0.00 | 0.00 | 0.00 | 39 | 1015.2 |
| 20260831204509 | 36 | 274 | 0.0 | 8.0 | 0.00 | 0.00 | 0.00 | 39 | 1015.5 |
| 20260831203014 | 35 | 57 | 0.0 | 4.8 | 0.00 | 0.00 | 0.00 | 44 | 1015.8 |
| 20260831201525 | 34 | 114 | 0.0 | 9.7 | 0.00 | 0.00 | 0.00 | 44 | 1016.0 |
| 20260831200033 | 35 | 66 | 0.0 | 6.4 | 0.00 | 0.00 | 0.00 | 43 | 1016.2 |
| 20260831194603 | 36 | 93 | 1.6 | 11.3 | 0.00 | 0.00 | 0.00 | 42 | 1016.4 |
| 20260831193010 | 37 | 123 | 1.6 | 11.3 | 0.00 | 0.00 | 0.00 | 41 | 1016.4 |
| 20260831191502 | 36 | 178 | 1.6 | 6.4 | 0.00 | 0.00 | 0.00 | 42 | 1016.7 |
| 20260831190003 | 36 | 142 | 1.6 | 16.1 | 0.00 | 0.00 | 0.00 | 42 | 1017.0 |
| 20260831184503 | 36 | 94 | 0.0 | 8.0 | 0.00 | 0.00 | 0.00 | 42 | 1017.2 |
| 20260831183008 | 35 | 30 | 1.6 | 11.3 | 0.00 | 0.00 | 0.00 | 44 | 1017.2 |
| 20260831181521 | 36 | 258 | 3.2 | 6.4 | 0.00 | 0.00 | 0.00 | 46 | 1017.3 |
| 20260831180003 | 35 | 50 | 0.0 | 4.8 | 0.00 | 0.00 | 0.00 | 48 | 1017.5 |
| 20260831174504 | 34 | 254 | 1.6 | 11.3 | 0.00 | 0.00 | 0.00 | 52 | 1017.9 |
| 20260831173007 | 35 | 98 | 0.0 | 9.7 | 0.00 | 0.00 | 0.00 | 51 | 1017.9 |
| 20260831171522 | 33 | 246 | 0.0 | 8.0 | 0.00 | 0.00 | 0.00 | 53 | 1018.1 |
| 20260831170045 | 33 | 140 | 1.6 | 6.4 | 0.00 | 0.00 | 0.00 | 56 | 1018.3 |
| 20260831164503 | 33 | 250 | 0.0 | 8.0 | 0.00 | 0.00 | 0.00 | 58 | 1018.3 |
| 20260831163005 | 32 | 144 | 1.6 | 8.0 | 0.00 | 0.00 | 0.00 | 60 | 1018.1 |
| 20260831161509 | 31 | 211 | 1.6 | 6.4 | 0.00 | 0.00 | 0.00 | 62 | 1018.2 |
| 20260831160029 | 31 | 179 | 1.6 | 11.3 | 0.00 | 0.00 | 0.00 | 63 | 1018.2 |
| 20260831154558 | 30 | 194 | 0.0 | 8.0 | 0.00 | 0.00 | 0.00 | 67 | 1018.3 |
| 20260831153007 | 30 | 255 | 1.6 | 6.4 | 0.00 | 0.00 | 0.00 | 70 | 1018.2 |
| 20260831151510 | 29 | 254 | 1.6 | 11.3 | 0.00 | 0.00 | 0.00 | 72 | 1018.1 |
| 20260831150014 | 28 | 242 | 1.6 | 11.3 | 0.00 | 0.00 | 0.00 | 75 | 1018.1 |
| 20260831144526 | 27 | 178 | 3.2 | 6.4 | 0.00 | 0.00 | 0.00 | 78 | 1017.8 |
| 20260831143027 | 27 | 266 | 0.0 | 11.3 | 0.00 | 0.00 | 0.00 | 80 | 1017.8 |
| 20260831141532 | 27 | 34 | 0.0 | 9.7 | 0.00 | 0.00 | 0.00 | 81 | 1017.8 |
| 20260831140017 | 27 | 182 | 1.6 | 8.0 | 0.00 | 0.00 | 0.00 | 83 | 1017.5 |
| 20260831134518 | 26 | 256 | 0.0 | 3.2 | 0.00 | 0.00 | 0.00 | 86 | 1017.4 |
| 20260831133035 | 26 | 239 | 1.6 | 12.9 | 0.00 | 0.00 | 0.00 | 88 | 1017.3 |
| 20260831131530 | 25 | 173 | 0.0 | 3.2 | 0.00 | 0.00 | 0.00 | 89 | 1017.1 |
| 20260831130009 | 25 | 272 | 0.0 | 3.2 | 0.00 | 0.00 | 0.00 | 89 | 1017.1 |
| 20260831124518 | 25 | 297 | 0.0 | 3.2 | 0.00 | 0.00 | 0.00 | 89 | 1016.8 |
| 20260831123024 | 25 | 52 | 0.0 | 3.2 | 0.00 | 0.00 | 0.00 | 88 | 1016.8 |
| 20260831121529 | 25 | 155 | 0.0 | 4.8 | 0.00 | 0.00 | 0.00 | 88 | 1016.7 |
| 20260831120032 | 25 | 223 | 0.0 | 4.8 | 0.00 | 0.00 | 0.00 | 87 | 1016.7 |
| 20260831114515 | 25 | 132 | 0.0 | 9.7 | 0.00 | 0.00 | 0.00 | 87 | 1016.7 |
| 20260831113024 | 25 | 175 | 0.0 | 3.2 | 0.00 | 0.00 | 0.00 | 87 | 1016.6 |
| 20260831111531 | 25 | 211 | 0.0 | 3.2 | 0.00 | 0.00 | 0.00 | 87 | 1016.5 |
| 20260831110031 | 25 | 253 | 0.0 | 8.0 | 0.00 | 0.00 | 0.00 | 86 | 1016.4 |
| 20260831104539 | 25 | 214 | 1.6 | 11.3 | 0.00 | 0.00 | 0.00 | 86 | 1016.4 |
| 20260831103037 | 25 | 221 | 0.0 | 4.8 | 0.00 | 0.00 | 0.00 | 86 | 1016.5 |
| 20260831101503 | 25 | 350 | 0.0 | 4.8 | 0.00 | 0.00 | 0.00 | 86 | 1016.6 |
| 20260831100008 | 25 | 246 | 0.0 | 6.4 | 0.00 | 0.00 | 0.00 | 86 | 1016.7 |
| 20260831094523 | 25 | 259 | 1.6 | 4.8 | 0.00 | 0.00 | 0.00 | 86 | 1016.6 |
| 20260831093016 | 25 | 107 | 0.0 | 3.2 | 0.00 | 0.00 | 0.00 | 86 | 1016.5 |
| 20260831091524 | 25 | 277 | 0.0 | 3.2 | 0.00 | 0.00 | 0.00 | 86 | 1016.4 |
| 20260831090004 | 25 | 252 | 0.0 | 3.2 | 0.00 | 0.00 | 0.00 | 85 | 1016.4 |
| 20260831084507 | 25 | 38 | 0.0 | 4.8 | 0.00 | 0.00 | 0.00 | 84 | 1016.4 |
| 20260831083022 | 26 | 220 | 0.0 | 4.8 | 0.00 | 0.00 | 0.00 | 83 | 1016.4 |
| 20260831081519 | 26 | 94 | 0.0 | 6.4 | 0.00 | 0.00 | 0.00 | 82 | 1016.5 |
| 20260831080047 | 26 | 19 | 0.0 | 6.4 | 0.00 | 0.00 | 0.00 | 81 | 1016.4 |
| 20260831074507 | 26 | 82 | 0.0 | 4.8 | 0.00 | 0.00 | 0.00 | 79 | 1016.4 |
| 20260831073025 | 26 | 145 | 0.0 | 3.2 | 0.00 | 0.00 | 0.00 | 79 | 1016.6 |
| 20260831071516 | 26 | 162 | 1.6 | 6.4 | 0.00 | 0.00 | 0.00 | 78 | 1016.6 |
| 20260831070029 | 26 | 273 | 1.6 | 9.7 | 0.00 | 0.00 | 0.00 | 76 | 1016.6 |
| 20260831064531 | 27 | 131 | 0.0 | 3.2 | 0.00 | 0.00 | 0.00 | 75 | 1016.7 |
| 20260831063012 | 27 | 182 | 0.0 | 4.8 | 0.00 | 0.00 | 0.00 | 74 | 1016.7 |
| 20260831061513 | 27 | 238 | 0.0 | 6.4 | 0.00 | 0.00 | 0.00 | 73 | 1016.7 |
| 20260831060022 | 27 | 167 | 0.0 | 9.7 | 0.00 | 0.00 | 0.00 | 72 | 1016.5 |
| 20260831054529 | 28 | 5 | 0.0 | 11.3 | 0.00 | 0.00 | 0.00 | 70 | 1016.3 |
| 20260831053031 | 28 | 105 | 1.6 | 8.0 | 0.00 | 0.00 | 0.00 | 68 | 1016.2 |
| 20260831051513 | 28 | 119 | 0.0 | 4.8 | 0.00 | 0.00 | 0.00 | 67 | 1016.2 |
| 20260831050021 | 28 | 70 | 0.0 | 8.0 | 0.00 | 0.00 | 0.00 | 65 | 1016.1 |
| 20260831044527 | 28 | 352 | 0.0 | 6.4 | 0.00 | 0.00 | 0.00 | 64 | 1016.0 |
| 20260831043033 | 29 | 166 | 1.6 | 9.7 | 0.00 | 0.00 | 0.00 | 63 | 1016.0 |
| 20260831041546 | 29 | 211 | 1.6 | 12.9 | 0.00 | 0.00 | 0.00 | 63 | 1016.1 |
| 20260831040015 | 30 | 204 | 1.6 | 12.9 | 0.00 | 0.00 | 0.00 | 62 | 1016.0 |
| 20260831034529 | 30 | 5 | 1.6 | 12.9 | 0.00 | 0.00 | 0.00 | 62 | 1015.8 |
| 20260831033029 | 30 | 130 | 1.6 | 12.9 | 0.00 | 0.00 | 0.00 | 61 | 1015.7 |
| 20260831031540 | 30 | 204 | 1.6 | 11.3 | 0.00 | 0.00 | 0.00 | 60 | 1015.5 |
| 20260831030032 | 30 | 125 | 1.6 | 11.3 | 0.00 | 0.00 | 0.00 | 61 | 1015.2 |
| 20260831024520 | 30 | 79 | 1.6 | 6.4 | 0.00 | 0.00 | 0.00 | 60 | 1015.0 |
| 20260831023004 | 30 | 198 | 1.6 | 11.3 | 0.00 | 0.00 | 0.00 | 59 | 1014.9 |
| 20260831021508 | 31 | 116 | 1.6 | 16.1 | 0.00 | 0.00 | 0.00 | 56 | 1014.6 |
| 20260831020013 | 30 | 128 | 3.2 | 14.5 | 0.00 | 0.00 | 0.00 | 55 | 1014.3 |
| 20260831014516 | 30 | 132 | 0.0 | 3.2 | 0.00 | 0.00 | 0.00 | 52 | 1014.1 |
| 20260831013024 | 30 | 93 | 0.0 | 3.2 | 0.00 | 0.00 | 0.00 | 51 | 1013.9 |
| 20260831011505 | 31 | 185 | 0.0 | 3.2 | 0.00 | 0.00 | 0.00 | 50 | 1013.7 |
| 20260831010010 | 31 | 121 | 0.0 | 3.2 | 0.00 | 0.00 | 0.00 | 50 | 1013.9 |
| 20260831004516 | 32 | 121 | 0.0 | 4.8 | 0.00 | 0.00 | 0.00 | 49 | 1013.8 |
| 20260831003021 | 32 | 142 | 0.0 | 6.4 | 0.00 | 0.00 | 0.00 | 47 | 1013.7 |
| 20260831001528 | 32 | 107 | 0.0 | 3.2 | 0.00 | 0.00 | 0.00 | 47 | 1013.6 |
| 20260831000019 | 32 | 167 | 1.6 | 8.0 | 0.00 | 0.00 | 0.00 | 46 | 1013.6 |
| 20260830234543 | 32 | 129 | 0.0 | 4.8 | 0.00 | 0.00 | 0.00 | 49 | 1013.7 |
| 20260830233021 | 33 | 144 | 0.0 | 6.4 | 0.00 | 0.00 | 0.00 | 46 | 1013.7 |
| 20260830231522 | 34 | 40 | 0.0 | 3.2 | 0.00 | 0.00 | 0.00 | 44 | 1013.7 |
| 20260830230032 | 33 | 117 | 0.0 | 4.8 | 0.00 | 0.00 | 0.00 | 45 | 1013.7 |
| 20260830224511 | 33 | 150 | 0.0 | 6.4 | 0.00 | 0.00 | 0.00 | 44 | 1013.8 |
| 20260830223018 | 35 | 60 | 0.0 | 8.0 | 0.00 | 0.00 | 0.00 | 40 | 1013.8 |
| 20260830221528 | 35 | 30 | 0.0 | 6.4 | 0.00 | 0.00 | 0.00 | 40 | 1013.8 |
| 20260830220030 | 36 | 143 | 1.6 | 6.4 | 0.00 | 0.00 | 0.00 | 40 | 1013.9 |
| 20260830214532 | 36 | 28 | 0.0 | 6.4 | 0.00 | 0.00 | 0.00 | 40 | 1014.1 |
| 20260830213021 | 37 | 130 | 1.6 | 9.7 | 0.00 | 0.00 | 0.00 | 39 | 1014.2 |